Regional Weather Roundup
Issued by NWS

Home | Current Version | Previous Version | Text Only | Print | Product List | Glossary On
Versions: 1 2 3 4 5 6 7 8 9 10 11 12 13 14 15 16 17 18 19 20 21 22 23 24 25 26 27 28 29 30 31 32 33 34 35 36 37 38 39 40 41 42 43 44 45 46 47 48 49 50
000
ASUS44 KEWX 060911
RWRTX
SOUTH TEXAS REGIONAL WEATHER ROUNDUP
NATIONAL WEATHER SERVICE AUSTIN/SAN ANTONIO TX
400 AM CDT WED MAY 06 2015

NOTE: "FAIR" INDICATED FEW OR NO CLOUDS BELOW 12,000 FEET WITH NO
SIGNIFICANT WEATHER AND/OR OBSTRUCTIONS TO VISIBILITY.

* - THESE STATIONS ARE NOT NWS OR FAA STATIONS...AND ARE NOT SUBJECT
    TO NWS AND FAA QUALITY CONTROL.

TXZ171-172-183>190-061000-
TEXAS HILL COUNTRY AND EDWARDS PLATEAU

CITY           SKY/WX    TMP DP  RH WIND       PRES   REMARKS
JUNCTION       CLOUDY    71  67  87 S5        29.89F
*LLANO         CLOUDY    70  70 100 CALM      29.93S
BURNET         CLOUDY    70  67  90 S10G17    29.93F
*HORSESHOE BAY CLOUDY    72  68  88 S8G18     29.91S
*KERRVILLE     LGT RAIN  69  67  94 S13G23    29.93R
*FREDERICKSBRG CLOUDY    69  66  90 S10       29.92S
*ROCKSPRINGS   CLOUDY    68  68 100 S14       29.93S FOG
*BOERNE STAGE  CLOUDY    70  66  88 S9G18     29.93F
*CASTROVILLE   CLOUDY    72  70  92 SE6       29.92S
HONDO          CLOUDY    72  69  90 SE12      29.92S
*UVALDE        CLOUDY    71  69  93 SE10      29.90S
DEL RIO        CLOUDY    73  70  90 SE14      29.83F
LAUGHLIN AFB   CLOUDY    73  70  88 SE12      29.84F
CARRIZO SPRGS  CLOUDY    72  68  88 SE9       29.86S
$$

TXZ173-191>194-202-209-217>225-228-061000-
CENTRAL AND SOUTH CENTRAL TEXAS

CITY           SKY/WX    TMP DP  RH WIND       PRES   REMARKS
GEORGETOWN     CLOUDY    72  70  94 S7G16     29.92S
AUSTIN/BERGSTM CLOUDY    71  71 100 S13       29.91S
AUSTIN/MABRY   CLOUDY    71  70  96 S6        29.92F
*AUSTIN/EXEC   CLOUDY    72  72 100 S9        29.93S FOG
*LAGO VISTA    CLOUDY    70  69  94 S9G17     29.93S FOG
SAN MARCOS     CLOUDY    72  68  88 S14       29.92F
NEW BRAUNFELS  CLOUDY    73  70  90 S13       29.90F
RANDOLPH AFB   CLOUDY    72  70  94 S13       29.91F
PT SAN ANTONIO CLOUDY    72  71  96 SE10      29.89F
SAN ANTONIO    CLOUDY    73  69  87 SE13      29.91F
STINSON FIELD  CLOUDY    72  70  93 SE6       29.89S FOG
*PLEASANTON    CLOUDY    73  69  89 SE10G17   29.90S
*LA GRANGE     CLOUDY    74  71  90 SE10      29.91R
*GIDDINGS      CLOUDY    71  68  90 S13G20    29.94R
*GONZALES      CLOUDY    73  72  96 SE9       29.90F
$$

TXZ163>164-176>182-195>201-210>213-226-227-235-061000-
SOUTHEAST TEXAS

CITY           SKY/WX    TMP DP  RH WIND       PRES   REMARKS
COLLEGE STN    CLOUDY    70  67  90 SE10      29.93F
*BRYAN         CLOUDY    69  69  99 E7        29.95S
*CALDWELL      TSTM      70  70 100 SE10      29.95R
*CROCKETT      NOT AVBL
*BRENHAM       CLOUDY    73  69  87 SE14      29.92F
HUNTSVILLE     CLOUDY    72  66  81 VRB6      29.96R
CONROE         CLOUDY    70  67  90 SE9       29.95F
HOUSTON BUSH   CLOUDY    74  68  81 SE14      29.95F
HOUSTON HOBBY  MOCLDY    74  68  81 SE6       29.96S
*HOUSTON SW AP CLOUDY    78  74  89 E6        29.97S
PEARLAND       MOCLDY    75  68  78 SE12      29.98F
HOUSTON HOOKS  CLOUDY    74  67  78 SE10G18   29.95F
ELLINGTON FLD  MOCLDY    75  68  78 SE8       29.97F
SUGAR LAND     CLOUDY    74  68  81 SE12      29.94F
*HOUSTON EXEC  MOCLDY    72  68  88 SE14      29.95F
*CLEVELAND MUN MOCLDY    70  68  95 SE3       29.98F
*WHARTON       MOCLDY    72  70  93 SE9       29.95S
*COLUMBUS      CLOUDY    73  69  90 SE9G16    29.93S
$$

TXZ214>216-236>238-061000-
THE UPPER TEXAS COAST

CITY           SKY/WX    TMP DP  RH WIND       PRES   REMARKS
*ORANGE        MOCLDY    71  64  79 E7        30.01F
PORT ARTHUR    CLOUDY    73  67  81 SE12      29.99F
GALVESTON      CLOUDY    75  71  87 SE17      29.97F
ANGLETON       CLOUDY    73  70  90 SE9       29.96S
*BAY CITY      CLOUDY    73  73  98 SE8       29.93F
PALACIOS       CLOUDY    75  71  87 SE16G23   29.92F
$$

TXZ229>234-239>247-061000-
TEXAS COASTAL BEND AND RIO GRANDE PLAINS

CITY           SKY/WX    TMP DP  RH WIND       PRES   REMARKS
VICTORIA       LGT RAIN  75  72  90 S15G22    29.93R
*BEEVILLE      CLOUDY    74  74 100 SE8       29.90F
ROCKPORT       CLOUDY    77  72  84 SE18      29.90F
*PORT ARANSAS  CLOUDY    75  73  92 SE15G23   29.89F
*PORT LAVACA   CLOUDY    75  72  88 SE10      29.92S
*INGLESIDE     CLOUDY    77  73  87 SE15G21   29.89F
CORPUS CHRISTI CLOUDY    78  71  79 SE16      29.89F
CORPUS NAS     CLOUDY    75  73  93 SE17G25   29.89F
*ROBSTOWN      CLOUDY    77  73  87 SE13      29.89S
ALICE          CLOUDY    76  71  85 SE13      29.88F
KINGSVILLE NAS CLOUDY    76  75  97 SE14      29.88F
COTULLA        CLOUDY    75  68  78 SE12      29.87F
*FAITH RANCH   CLOUDY    75  70  83 SE10G18   29.86S
LAREDO         CLOUDY    75  70  85 SE9       29.86F
$$

TXZ248>255-061000-
DEEP SOUTH TEXAS

CITY           SKY/WX    TMP DP  RH WIND       PRES   REMARKS
BROWNSVILLE    CLOUDY    76  73  91 SE14G23   29.87F
PORT ISABEL    PTCLDY    76  71  85 SE14      29.86F
*SOUTH PADRE   CLEAR     75  75 100 SW15      29.88S
HARLINGEN      CLOUDY    77  73  87 SE16      29.86F
*HEBBRONVILLE    N/A     73  70  90 SE12      29.87F
MCALLEN        CLOUDY    78  73  84 SE13      29.85F
*WESLACO         N/A     75  71  86 SE8G16    29.86S
FALFURRIAS     CLOUDY    76  71  86 SE10      29.86F
EDINBURG       CLOUDY    77  72  83 SE9       29.86F
*ZAPATA        CLOUDY    76  70  81 SE10      29.83F
$$

TXZ213>215-236>238-242>244-246-247-251-254-255-061000-
CMAN STATIONS

STATION/POSITION TIME  TEMP    WIND        PRES    WAVE
                       AIR SEA DIR/SP/G            HT/PER
                 (UTC) (F)     (DEG/KT/KT) (MB)    (FT/S)
$$

GMZ080-GMZ150>470-061000-
OFFSHORE BUOY REPORTS

STATION/POSITION TIME  TEMP    WIND        PRES    WAVE
                       AIR SEA DIR/SP/G            HT/PER
                 (UTC) (F)     (DEG/KT/KT) (MB)    (FT/S)
$$



USA.gov is the U.S. government's official web portal to all federal, state and local government web resources and services.